Terminal Aerodrome Forecast
Issued by NWS

Home | Current Version | Previous Version | Text Only | Print | Product List | Glossary On
Versions: 1 2 3 4 5 6 7 8 9 10 11 12 13 14
440
FTUS41 KPBZ 241120
TAFBVI
TAF
KBVI 241120Z 2412/2512 11008KT 6SM -RA OVC060
     FM241700 12011G19KT 5SM -RA OVC030
     FM250100 10009KT P6SM VCSH OVC015
     FM250400 08008KT P6SM VCSH OVC008=

USA.gov is the U.S. government's official web portal to all federal, state and local government web resources and services.